Estación Meteorológica de la Universidad de Murcia
Estación Meteorológica de la Universidad de Murcia
Universidad de Murcia
 

Temperatura ambienteTemperatura ambiente

 

Máxima: 31,4 ºC a las 13:06:00 del día 15/06/2021
Mínima: 20 ºC a las 03:11:00 del día 15/06/2021

||Temperatura máxima últimos meses|| ---- ||Temperatura mínima últimos meses||


Temperatura máxima

  • 1 - 31,4 ºC del día 15/06/2021
  • 2 - 32,4 ºC del día 14/06/2021
  • 3 - 31,5 ºC del día 13/06/2021
  • 4 - 30,4 ºC del día 12/06/2021
  • 5 - 30,2 ºC del día 11/06/2021
  • 6 - 29,6 ºC del día 10/06/2021
  • 7 - 33,6 ºC del día 09/06/2021
  • 8 - 30,4 ºC del día 08/06/2021
  • 9 - 30,9 ºC del día 07/06/2021
  • 10 - 29,7 ºC del día 06/06/2021
  • 11 - 25,1 ºC del día 05/06/2021
  • 12 - 27,6 ºC del día 04/06/2021
  • 13 - 26,6 ºC del día 03/06/2021
  • 14 - 28,3 ºC del día 02/06/2021
  • 15 - 27 ºC del día 01/06/2021
  • 16 - 24,1 ºC del día 31/05/2021
  • 17 - 28,6 ºC del día 30/05/2021
  • 18 - 29,3 ºC del día 29/05/2021
  • 19 - 25,3 ºC del día 28/05/2021
  • 20 - 24,4 ºC del día 27/05/2021
  • 21 - 25,1 ºC del día 26/05/2021
  • 22 - 25,4 ºC del día 25/05/2021
  • 23 - 27,1 ºC del día 24/05/2021
  • 24 - 19,2 ºC del día 23/05/2021
  • 25 - 26,3 ºC del día 22/05/2021
  • 26 - 29,4 ºC del día 21/05/2021
  • 27 - 26,5 ºC del día 20/05/2021
  • 28 - 26 ºC del día 19/05/2021
  • 29 - 29,8 ºC del día 18/05/2021
  • 30 - 28,9 ºC del día 17/05/2021
  • 31 - 34,8 ºC del día 16/05/2021
  • 32 - 32,6 ºC del día 15/05/2021
  • 33 - 28,6 ºC del día 14/05/2021
  • 34 - 28,1 ºC del día 13/05/2021
  • 35 - 28,6 ºC del día 12/05/2021
  • 36 - 23,8 ºC del día 11/05/2021
  • 37 - 24,8 ºC del día 10/05/2021
  • 38 - 28,8 ºC del día 09/05/2021
  • 39 - 27,5 ºC del día 08/05/2021
  • 40 - 32,5 ºC del día 07/05/2021
  • 41 - 28,8 ºC del día 06/05/2021
  • 42 - 28,3 ºC del día 05/05/2021
  • 43 - 24,5 ºC del día 04/05/2021
  • 44 - 20,4 ºC del día 03/05/2021
  • 45 - 23,3 ºC del día 02/05/2021
  • 46 - 24,5 ºC del día 01/05/2021
  • 47 - 24,2 ºC del día 30/04/2021
  • 48 - 24,6 ºC del día 29/04/2021
  • 49 - 25,2 ºC del día 28/04/2021
  • 50 - 24,5 ºC del día 27/04/2021
  • 51 - 23,6 ºC del día 26/04/2021
  • 52 - 22,6 ºC del día 25/04/2021
  • 53 - 18,9 ºC del día 24/04/2021
  • 54 - 20,4 ºC del día 23/04/2021
  • 55 - 20,4 ºC del día 22/04/2021
  • 56 - 22,6 ºC del día 21/04/2021
  • 57 - 24,9 ºC del día 20/04/2021
  • 58 - 25 ºC del día 19/04/2021
  • 59 - 20,1 ºC del día 18/04/2021

||Volver al inicio de la página||


Temperatura mínima

  • 1 - 20 ºC del día 15/06/2021
  • 2 - 18,5 ºC del día 14/06/2021
  • 3 - 19 ºC del día 13/06/2021
  • 4 - 17,9 ºC del día 12/06/2021
  • 5 - 17 ºC del día 11/06/2021
  • 6 - 18,7 ºC del día 10/06/2021
  • 7 - 17,4 ºC del día 09/06/2021
  • 8 - 17,3 ºC del día 08/06/2021
  • 9 - 17,5 ºC del día 07/06/2021
  • 10 - 14,6 ºC del día 06/06/2021
  • 11 - 15,2 ºC del día 05/06/2021
  • 12 - 18,4 ºC del día 04/06/2021
  • 13 - 18,1 ºC del día 03/06/2021
  • 14 - 16,8 ºC del día 02/06/2021
  • 15 - 16,2 ºC del día 01/06/2021
  • 16 - 16,1 ºC del día 31/05/2021
  • 17 - 15,7 ºC del día 30/05/2021
  • 18 - 14,7 ºC del día 29/05/2021
  • 19 - 15,9 ºC del día 28/05/2021
  • 20 - 14,1 ºC del día 27/05/2021
  • 21 - 16,1 ºC del día 26/05/2021
  • 22 - 14,1 ºC del día 25/05/2021
  • 23 - 12,4 ºC del día 24/05/2021
  • 24 - 13,7 ºC del día 23/05/2021
  • 25 - 16,1 ºC del día 22/05/2021
  • 26 - 14,2 ºC del día 21/05/2021
  • 27 - 15,7 ºC del día 20/05/2021
  • 28 - 17,8 ºC del día 19/05/2021
  • 29 - 15,1 ºC del día 18/05/2021
  • 30 - 17,8 ºC del día 17/05/2021
  • 31 - 17,3 ºC del día 16/05/2021
  • 32 - 14,3 ºC del día 15/05/2021
  • 33 - 16,7 ºC del día 14/05/2021
  • 34 - 15,9 ºC del día 13/05/2021
  • 35 - 12,4 ºC del día 12/05/2021
  • 36 - 12,3 ºC del día 11/05/2021
  • 37 - 17,2 ºC del día 10/05/2021
  • 38 - 16,7 ºC del día 09/05/2021
  • 39 - 13,9 ºC del día 08/05/2021
  • 40 - 14,5 ºC del día 07/05/2021
  • 41 - 13,3 ºC del día 06/05/2021
  • 42 - 11,9 ºC del día 05/05/2021
  • 43 - 12,1 ºC del día 04/05/2021
  • 44 - 13,1 ºC del día 03/05/2021
  • 45 - 11,2 ºC del día 02/05/2021
  • 46 - 14,1 ºC del día 01/05/2021
  • 47 - 13,3 ºC del día 30/04/2021
  • 48 - 14 ºC del día 29/04/2021
  • 49 - 12,1 ºC del día 28/04/2021
  • 50 - 12,3 ºC del día 27/04/2021
  • 51 - 14 ºC del día 26/04/2021
  • 52 - 13 ºC del día 25/04/2021
  • 53 - 13,2 ºC del día 24/04/2021
  • 54 - 11,8 ºC del día 23/04/2021
  • 55 - 13,8 ºC del día 22/04/2021
  • 56 - 14 ºC del día 21/04/2021
  • 57 - 13,2 ºC del día 20/04/2021
  • 58 - 9,2 ºC del día 19/04/2021
  • 59 - 10,8 ºC del día 18/04/2021

 

|| Humedad relativa|| Velocidad y dirección del viento|| Precipitación|| Radiación Solar Global y PAR|| Temperatura y humedad del suelo|| Presión atmosférica|| Más información|| Volver a la página principal|| Volver al inicio de la página||


Estación Meteorológica de la Universidad de Murcia
http://estacion.um.es/
Informacion actualizada a: 17/06/2021 a las 22:01:00